This is the latest recevied weather packets stored in our database for station/object SV9TNF-2. If no packets are shown the sender has not sent any weather packets the latest 10 day(s).
| Time | Temp. | Humidity | Pressure | Rain* | Wind** | Luminosity | Snow |
|---|---|---|---|---|---|---|---|
| 1777930367 | 12.78° C | 78% | 1025.4 hPa | 0 mm | 4.92 m/s, 189° | - | - |
| 1777930067 | 12.78° C | 78% | 1025.4 hPa | 0 mm | 4.92 m/s, 162° | - | - |
| 1777929767 | 12.78° C | 76% | 1025.4 hPa | 0 mm | 7.6 m/s, 253° | - | - |
| 1777929466 | 12.78° C | 75% | 1025.4 hPa | 0 mm | 4.47 m/s, 190° | - | - |
| 1777929167 | 12.78° C | 74% | 1025.4 hPa | 0 mm | 7.6 m/s, 123° | - | - |
| 1777928866 | 13.33° C | 74% | 1025.4 hPa | 0 mm | 0.45 m/s, 188° | - | - |
| 1777928566 | 13.33° C | 73% | 1025.4 hPa | 0 mm | 2.68 m/s, 202° | - | - |
| 1777928266 | 13.33° C | 73% | 1025.7 hPa | 0 mm | 3.13 m/s, 143° | - | - |
| 1777927966 | 13.89° C | 73% | 1025.7 hPa | 0 mm | 2.24 m/s, 212° | - | - |
| 1777927666 | 13.33° C | 72% | 1025.7 hPa | 0 mm | 4.02 m/s, 100° | - | - |
| 1777927366 | 13.89° C | 72% | 1025.7 hPa | 0 mm | 1.79 m/s, 256° | - | - |
| 1777927066 | 13.89° C | 71% | 1025.7 hPa | 0 mm | 1.79 m/s, 20° | - | - |
| 1777926766 | 14.44° C | 69% | 1025.7 hPa | 0 mm | 0 m/s | - | - |
| 1777926469 | 15° C | 68% | 1025.7 hPa | 0 mm | 4.92 m/s, 69° | - | - |
| 1777926166 | 15.56° C | 66% | 1025.7 hPa | 0 mm | 4.02 m/s, 240° | - | - |
| 1777925865 | 16.11° C | 68% | 1025.7 hPa | 0 mm | 5.81 m/s, 183° | - | - |
| 1777925565 | 16.11° C | 67% | 1025.7 hPa | 0 mm | 7.15 m/s, 357° | - | - |
| 1777925265 | 15.56° C | 67% | 1025.7 hPa | 0 mm | 5.81 m/s, 325° | - | - |
| 1777924965 | 16.11° C | 68% | 1025.7 hPa | 0 mm | 4.92 m/s, 89° | - | - |
| 1777924665 | 16.11° C | 68% | 1025.7 hPa | 0 mm | 6.71 m/s, 299° | - | - |
| 1777924365 | 16.11° C | 68% | 1025.7 hPa | 0 mm | 6.26 m/s, 70° | - | - |
| 1777924065 | 16.11° C | 65% | 1025.7 hPa | 0 mm | 6.26 m/s, 0° | - | - |
| 1777923765 | 16.11° C | 65% | 1025.7 hPa | 0 mm | 8.49 m/s, 249° | - | - |
| 1777923470 | 16.11° C | 66% | 1025.7 hPa | 0 mm | 4.47 m/s, 249° | - | - |
| 1777923164 | 16.11° C | 65% | 1025.7 hPa | 0 mm | 5.81 m/s, 279° | - | - |
* Rain latest hour (hover to see other rain measurements)
** Current wind speed in m/s (hover to see current wind gust speed)